Home   Weather   Perth   Past weeks

Flag for Australia Past Weather in Perth, Western Australia, Australia — Yesterday and Last 2 Weeks

52 °F

Partly sunny.

Feels Like: 51 °F
Forecast: 51 / 69 °F
Wind: 5 mph from South

Location: Belmont Perth Airport

Current Time: Oct 27, 2016 at 7:17:53 AM

Latest Report: Oct 27, 2016 at 6:30 AM

Visibility: N/A

Pressure: 30.12 "Hg

Humidity: 94%

Dew Point: 50 °F

Location of PerthLocation

Past Weather in Perth — Graph


Perth Temperature Yesterday

Maximum temperature yesterday: 72 °F (at 12:00 PM)
Minimum temperature yesterday: 45 °F (at 2:30 AM)
Average temperature yesterday: 59 °F

High & Low Weather Summary for the Past Weeks

High90 °F (Oct 12, 2:00 PM)100% (Oct 13, 11:00 PM)30.36 "Hg (Oct 13, 11:00 PM)
Low41 °F (Oct 16, 5:00 AM)9% (Oct 22, 3:00 PM)29.80 "Hg (Oct 13, 2:00 AM)
Average60 °F60%30.05 "Hg
* Reported Oct 12 6:00 AM — Oct 27 6:00 AM, Perth, Weather by CustomWeather, © 2016

Note: Actual official high and low records may vary slightly from our data, if they occured in-between our weather recording intervals... More about our weather records


Perth Weather History for the Previous 24 Hours

Scroll right to see more
Time TempWeatherWind HumidityBarometerVisibility
6:00 AM
Thu, Oct 27
48 °FPartly sunny.3 mph94%30.12 "HgN/A
5:30 AM46 °FPartly sunny.No wind93%30.12 "HgN/A
5:00 AM45 °FPassing clouds.3 mph100%30.09 "HgN/A
4:30 AM45 °FClear.5 mph93%30.09 "Hg10 mi
4:00 AM45 °FClear.No wind100%30.09 "Hg10 mi
3:30 AM45 °FClear.No wind100%30.09 "Hg10 mi
3:00 AM45 °FClear.No wind100%30.09 "Hg10 mi
2:30 AM46 °FClear.1 mph93%30.09 "Hg10 mi
2:00 AM46 °FClear.2 mph100%30.09 "Hg10 mi
1:30 AM46 °FClear.3 mph100%30.09 "Hg10 mi
1:00 AM48 °FClear.5 mph94%30.09 "Hg10 mi
12:30 AM48 °FClear.5 mph100%30.12 "Hg10 mi
12:00 AM50 °FClear.6 mph94%30.12 "Hg10 mi
11:30 PM
Wed, Oct 26
50 °FClear.6 mph94%30.12 "Hg10 mi
11:00 PM52 °FClear.6 mph94%30.12 "Hg10 mi
10:30 PM54 °FClear.7 mph88%30.12 "Hg10 mi
10:00 PM57 °FClear.7 mph82%30.15 "Hg10 mi
9:30 PM59 °FClear.8 mph77%30.15 "Hg10 mi
9:00 PM59 °FClear.8 mph77%30.15 "Hg10 mi
8:30 PM61 °FClear.8 mph72%30.12 "Hg10 mi
8:00 PM61 °FClear.9 mph68%30.12 "Hg10 mi
7:30 PM63 °FClear.10 mph64%30.12 "Hg10 mi
7:00 PM63 °FClear.12 mph59%30.09 "Hg10 mi
6:30 PM64 °FSunny.13 mph56%30.09 "Hg10 mi
6:00 PM66 °FPassing clouds.12 mph56%30.09 "HgN/A
5:30 PM68 °FPassing clouds.14 mph49%30.07 "HgN/A
5:00 PM68 °FPassing clouds.12 mph49%30.07 "HgN/A
4:30 PM70 °FPassing clouds.14 mph43%30.07 "HgN/A
4:00 PM70 °FPassing clouds.13 mph46%30.07 "HgN/A
3:30 PM70 °FPassing clouds.14 mph43%30.07 "HgN/A
3:00 PM70 °FPassing clouds.14 mph43%30.07 "HgN/A
2:30 PM70 °FPassing clouds.15 mph46%30.07 "HgN/A
2:00 PM70 °FPassing clouds.14 mph46%30.07 "HgN/A
1:30 PM70 °FPassing clouds.14 mph46%30.09 "HgN/A
1:00 PM70 °FScattered clouds.12 mph46%30.09 "HgN/A
12:30 PM72 °FScattered clouds.8 mph41%30.09 "HgN/A
12:00 PM72 °FPartly sunny.7 mph41%30.09 "HgN/A
11:30 AM68 °FScattered clouds.6 mph46%30.12 "HgN/A
11:00 AM70 °FPartly sunny.7 mph43%30.12 "HgN/A
10:30 AM66 °FPartly sunny.7 mph49%30.12 "HgN/A
10:00 AM64 °FPartly sunny.6 mph56%30.12 "HgN/A
9:30 AM66 °FPartly sunny.3 mph52%30.12 "HgN/A
9:00 AM64 °FScattered clouds.7 mph56%30.12 "HgN/A
8:30 AM63 °FPassing clouds.9 mph64%30.12 "HgN/A
8:00 AM59 °FPassing clouds.8 mph72%30.12 "HgN/A
7:30 AM57 °FPassing clouds.8 mph77%30.12 "Hg5 mi
7:00 AM54 °FPassing clouds.8 mph88%30.12 "Hg4 mi
Weather by CustomWeather, © 2016

See weather overviewHow to use our weather pages